O'Neill, NE

4:56 PM CST on November 11, 2019 (GMT -0600)
The O'Neill Municipal-Baker

Weather History for KONL - October, 2019

Change the Weather History Date:

Sunday, October 13, 2019

  Actual Average Record
Temperature  
Mean Temperature 42 °F -  
Max Temperature 55 °F 66 °F 87 °F (1958)
Min Temperature 29 °F 37 °F 15 °F (1979)
Degree Days  
Heating Degree Days 23    
Moisture  
Dew Point 25 °F    
Average Humidity 57    
Maximum Humidity 85    
Minimum Humidity 28    
Precipitation  
Precipitation 0.00 in - - ()
Sea Level Pressure  
Sea Level Pressure 29.93 in    
Wind  
Wind Speed 9 mph ()    
Max Wind Speed 21 mph    
Max Gust Speed 29 mph    
Visibility 10.0 miles    
Events      
Averages and records for this station are not official NWS values.
T = Trace of Precipitation, MM = Missing Value Source: Averaged Metar Reports

Daily Weather History Graph

Daily Weather History Graph

Search for Another Location

Airport or City:

Astronomy

Oct. 13, 2019 Rise Set
Actual Time 7:45 AM CDT 6:56 PM CDT
Civil Twilight 7:16 AM CDT 7:24 PM CDT
Nautical Twilight 6:44 AM CDT 7:56 PM CDT
Astronomical Twilight 6:11 AM CDT 8:29 PM CDT
Moon 7:20 PM CDT (10/13) 7:18 AM CDT (10/13)
Length of Visible Light 12h 07m
Length of Day
11h 10m
Full, 100% of the Moon is Illuminated
Oct 13
Full
Oct 13
Full
Oct 21
Last Quarter
Oct 27
New
Nov 4
First Quarter

Hourly Weather History & Observations

Time (CDT) Temp. Windchill Dew Point Humidity Pressure Visibility Wind Dir Wind Speed Gust Speed Precip Events Conditions
12:15 AM 32.2 °F 23.8 °F 23.2 °F 69% 29.88 in 10.0 mi West 10.4 mph - N/A   Clear
12:35 AM 33.4 °F 25.9 °F 23.4 °F 67% 29.87 in 10.0 mi West 9.2 mph - N/A   Clear
12:55 AM 32.2 °F 25.0 °F 23.5 °F 70% 29.88 in 10.0 mi WSW 8.1 mph - N/A   Clear
1:15 AM 32.0 °F 24.2 °F 23.7 °F 71% 29.87 in 10.0 mi West 9.2 mph - N/A   Clear
1:35 AM 32.0 °F 24.2 °F 23.7 °F 71% 29.88 in 10.0 mi West 9.2 mph - N/A   Clear
1:55 AM 31.8 °F 25.4 °F 23.7 °F 72% 29.88 in 10.0 mi West 6.9 mph - N/A   Clear
2:15 AM 31.8 °F 25.4 °F 23.9 °F 73% 29.88 in 10.0 mi West 6.9 mph - N/A   Clear
2:35 AM 31.1 °F 24.5 °F 24.3 °F 76% 29.88 in 10.0 mi West 6.9 mph - N/A   Clear
2:55 AM 30.9 °F 22.8 °F 24.4 °F 77% 29.88 in 10.0 mi West 9.2 mph - N/A   Clear
3:15 AM 32.0 °F 24.2 °F 25.3 °F 76% 29.89 in 10.0 mi West 9.2 mph - N/A   Clear
3:35 AM 32.4 °F 24.6 °F 25.3 °F 75% 29.89 in 10.0 mi West 9.2 mph - N/A   Clear
3:55 AM 32.0 °F 24.8 °F 24.8 °F 75% 29.89 in 10.0 mi West 8.1 mph - N/A   Clear
4:15 AM 32.0 °F 24.8 °F 25.0 °F 75% 29.88 in 10.0 mi West 8.1 mph - N/A   Clear
4:35 AM 31.5 °F 24.2 °F 24.8 °F 76% 29.88 in 10.0 mi West 8.1 mph - N/A   Clear
4:55 AM 31.1 °F 24.5 °F 24.8 °F 77% 29.88 in 10.0 mi West 6.9 mph - N/A   Clear
5:15 AM 31.1 °F 23.7 °F 24.8 °F 77% 29.89 in 10.0 mi West 8.1 mph - N/A   Clear
5:35 AM 30.9 °F 24.3 °F 24.6 °F 77% 29.89 in 10.0 mi West 6.9 mph - N/A   Clear
5:55 AM 30.0 °F 23.2 °F 24.4 °F 80% 29.90 in 10.0 mi West 6.9 mph - N/A   Clear
6:15 AM 30.2 °F 23.4 °F 24.4 °F 79% 29.90 in 10.0 mi West 6.9 mph - N/A   Clear
6:35 AM 30.9 °F 23.5 °F 24.4 °F 77% 29.90 in 10.0 mi WNW 8.1 mph - N/A   Clear
6:55 AM 30.6 °F 23.8 °F 24.3 °F 77% 29.90 in 10.0 mi West 6.9 mph - N/A   Clear
7:15 AM 29.3 °F 20.8 °F 23.9 °F 80% 29.90 in 10.0 mi West 9.2 mph - N/A   Clear
7:35 AM 29.8 °F 21.5 °F 23.9 °F 79% 29.91 in 10.0 mi West 9.2 mph - N/A   Clear
7:55 AM 30.7 °F 22.6 °F 23.9 °F 76% 29.91 in 10.0 mi West 9.2 mph - N/A   Clear
8:15 AM 31.6 °F 23.7 °F 24.6 °F 75% 29.91 in 10.0 mi West 9.2 mph - N/A   Clear
8:35 AM 32.5 °F 23.7 °F 25.0 °F 74% 29.91 in 10.0 mi West 11.5 mph - N/A   Clear
8:55 AM 33.8 °F 25.3 °F 25.5 °F 72% 29.92 in 10.0 mi West 11.5 mph - N/A   Clear
9:15 AM 35.6 °F 27.1 °F 25.5 °F 67% 29.92 in 10.0 mi West 12.7 mph 17.3 mph N/A   Clear
9:35 AM 38.1 °F 29.1 °F 25.7 °F 61% 29.92 in 10.0 mi WNW 16.1 mph 20.7 mph N/A   Clear
9:55 AM 40.3 °F 33.4 °F 26.4 °F 58% 29.93 in 10.0 mi West 11.5 mph 19.6 mph N/A   Clear
10:15 AM 42.6 °F 34.9 °F 26.6 °F 53% 29.94 in 10.0 mi WNW 16.1 mph 19.6 mph N/A   Clear
10:35 AM 44.1 °F 37.4 °F 27.0 °F 51% 29.95 in 10.0 mi WNW 13.8 mph 18.4 mph N/A   Clear
10:55 AM 45.9 °F 39.4 °F 25.5 °F 45% 29.95 in 10.0 mi WNW 15.0 mph 20.7 mph N/A   Clear
11:15 AM 46.4 °F 40.1 °F 25.5 °F 44% 29.95 in 10.0 mi West 15.0 mph 23.0 mph N/A   Clear
11:35 AM 48.4 °F - 25.7 °F 41% 29.95 in 10.0 mi WNW 15.0 mph 21.9 mph N/A   Clear
11:55 AM 48.4 °F - 26.1 °F 42% 29.95 in 10.0 mi WNW 15.0 mph 25.3 mph N/A   Clear
12:15 PM 49.6 °F - 25.9 °F 40% 29.95 in 10.0 mi WNW 15.0 mph 23.0 mph N/A   Clear
12:35 PM 49.8 °F - 25.2 °F 38% 29.95 in 10.0 mi WNW 16.1 mph 25.3 mph N/A   Clear
12:55 PM 51.1 °F - 25.2 °F 36% 29.95 in 10.0 mi West 13.8 mph 19.6 mph N/A   Clear
1:15 PM 52.2 °F - 26.6 °F 37% 29.95 in 10.0 mi NW 17.3 mph 21.9 mph N/A   Clear
1:35 PM 53.4 °F - 27.0 °F 36% 29.95 in 10.0 mi WNW 17.3 mph 21.9 mph N/A   Clear
1:55 PM 53.4 °F - 26.8 °F 36% 29.95 in 10.0 mi NW 15.0 mph 23.0 mph N/A   Clear
2:15 PM 54.0 °F - 26.8 °F 35% 29.95 in 10.0 mi NW 17.3 mph 24.2 mph N/A   Clear
2:35 PM 54.3 °F - 26.1 °F 34% 29.93 in 10.0 mi WNW 20.7 mph 28.8 mph N/A   Clear
2:55 PM 54.5 °F - 26.2 °F 34% 29.93 in 10.0 mi NW 15.0 mph 21.9 mph N/A   Clear
3:15 PM 55.4 °F - 23.9 °F 30% 29.93 in 10.0 mi WNW 16.1 mph 24.2 mph N/A   Clear
3:35 PM 55.4 °F - 23.2 °F 29% 29.92 in 10.0 mi WNW 18.4 mph 26.5 mph N/A   Clear
3:55 PM 55.0 °F - 23.4 °F 29% 29.92 in 10.0 mi NW 15.0 mph 23.0 mph N/A   Clear
4:15 PM 55.6 °F - 23.2 °F 29% 29.92 in 10.0 mi NNW 13.8 mph 20.7 mph N/A   Clear
4:35 PM 55.4 °F - 23.2 °F 29% 29.93 in 10.0 mi WNW 10.4 mph 19.6 mph N/A   Clear
4:55 PM 54.9 °F - 22.3 °F 28% 29.93 in 10.0 mi NW 10.4 mph 20.7 mph N/A   Clear
5:15 PM 54.5 °F - 21.9 °F 28% 29.93 in 10.0 mi NW 11.5 mph 19.6 mph N/A   Clear
5:35 PM 54.1 °F - 21.9 °F 29% 29.94 in 10.0 mi NW 10.4 mph - N/A   Clear
5:55 PM 53.2 °F - 21.2 °F 29% 29.95 in 10.0 mi NW 11.5 mph - N/A   Clear
6:15 PM 52.0 °F - 21.4 °F 30% 29.95 in 10.0 mi NW 8.1 mph - N/A   Clear
6:35 PM 49.3 °F - 23.0 °F 36% 29.95 in 10.0 mi NNW 4.6 mph - N/A   Clear
6:55 PM 46.9 °F - 24.4 °F 41% 29.95 in 10.0 mi NNW 4.6 mph - N/A   Clear
7:15 PM 45.5 °F - 24.6 °F 44% 29.96 in 10.0 mi Calm Calm - N/A   Clear
7:35 PM 41.7 °F 38.0 °F 26.8 °F 55% 29.97 in 10.0 mi North 5.8 mph - N/A   Clear
7:55 PM 41.4 °F - 26.2 °F 55% 29.97 in 10.0 mi Calm Calm - N/A   Clear
8:15 PM 41.9 °F - 26.2 °F 54% 29.97 in 10.0 mi Calm Calm - N/A   Clear
8:35 PM 42.8 °F - 25.5 °F 51% 29.97 in 10.0 mi Calm Calm - N/A   Clear
8:55 PM 39.4 °F - 25.5 °F 58% 29.97 in 7.0 mi Calm Calm - N/A   Clear
9:15 PM 36.1 °F - 26.4 °F 68% 29.98 in 10.0 mi Calm Calm - N/A   Clear
9:35 PM 38.3 °F - 25.9 °F 61% 29.99 in 10.0 mi Calm Calm - N/A   Clear
9:55 PM 36.9 °F - 26.4 °F 66% 29.98 in 10.0 mi Calm Calm - N/A   Clear
10:15 PM 36.3 °F - 26.8 °F 68% 29.98 in 10.0 mi Calm Calm - N/A   Clear
10:35 PM 34.5 °F - 26.6 °F 73% 29.98 in 10.0 mi Calm Calm - N/A   Clear
10:55 PM 35.1 °F - 25.7 °F 69% 29.98 in 10.0 mi Calm Calm - N/A   Clear
11:15 PM 35.1 °F - 25.7 °F 69% 29.98 in 10.0 mi Calm Calm - N/A   Clear
11:35 PM 32.0 °F - 26.2 °F 79% 29.98 in 10.0 mi Calm Calm - N/A   Clear
11:55 PM 32.2 °F - 28.0 °F 85% 29.99 in 10.0 mi Calm Calm - N/A   Clear